CMP304 MPTO-SKCG

Flight info

Callsign CMP304
Flight time 0h 42m
Altitude 29000
Route REMA1A REMAL PONPO BOGAL UGSAT UGSA3A
Aircraft B738/M-SDE3FGHIRWY/S

Departure

Time 2026-04-22 17:55
Airport Tocumen International Airport (MPTO)

Arrival

Time 2026-04-22 18:37
Airport Rafael Nuñez International Airport (SKCG)
Time Latitude Longitude Altitude Speed Heading
2026-04-22 17:38 9.06451 -79.38857 29 ft 0 kts 288°
2026-04-22 17:48 9.06448 -79.38848 29 ft 4 kts 291°
2026-04-22 17:49 9.06437 -79.38824 29 ft 4 kts 306°
2026-04-22 17:49 9.06419 -79.38804 29 ft 4 kts 323°
2026-04-22 17:49 9.06396 -79.38790 29 ft 4 kts 341°
2026-04-22 17:49 9.06370 -79.38785 29 ft 4 kts
2026-04-22 17:50 9.06359 -79.38787 29 ft 0 kts 14°
2026-04-22 17:51 9.06361 -79.38782 29 ft 1 kts 64°
2026-04-22 17:52 9.06355 -79.38755 29 ft 7 kts 102°
2026-04-22 17:52 9.06318 -79.38696 29 ft 13 kts 144°
2026-04-22 17:52 9.06225 -79.38638 29 ft 18 kts 164°
2026-04-22 17:52 9.06090 -79.38680 29 ft 23 kts 208°
2026-04-22 17:53 9.05934 -79.38768 29 ft 28 kts 209°
2026-04-22 17:53 9.05754 -79.38877 29 ft 32 kts 212°
2026-04-22 17:53 9.05549 -79.38997 29 ft 36 kts 209°
2026-04-22 17:53 9.05321 -79.39123 29 ft 39 kts 208°
2026-04-22 17:54 9.05079 -79.39260 29 ft 40 kts 209°
2026-04-22 17:54 9.04832 -79.39356 29 ft 37 kts 154°
2026-04-22 17:54 9.04896 -79.39188 30 ft 31 kts 31°
2026-04-22 17:54 9.05267 -79.38973 30 ft 96 kts 30°
2026-04-22 17:55 9.05734 -79.38708 30 ft 136 kts 28°
2026-04-22 17:55 9.07082 -79.37947 218 ft 185 kts 31°
2026-04-22 17:55 9.08093 -79.37157 979 ft 185 kts 46°
2026-04-22 17:55 9.08872 -79.36160 1849 ft 184 kts 56°
2026-04-22 17:56 9.09157 -79.34811 2302 ft 219 kts 95°
2026-04-22 17:56 9.08792 -79.33200 2618 ft 247 kts 100°
2026-04-22 17:56 9.08394 -79.31477 3379 ft 257 kts 99°
2026-04-22 17:56 9.08023 -79.29720 4463 ft 252 kts 99°
2026-04-22 17:57 9.07684 -79.27981 5475 ft 254 kts 98°
2026-04-22 17:57 9.07360 -79.26205 6338 ft 260 kts 99°
2026-04-22 17:57 9.07044 -79.24392 7195 ft 263 kts 98°
2026-04-22 17:57 9.06735 -79.22551 8048 ft 267 kts 98°
2026-04-22 17:58 9.06426 -79.20691 8925 ft 271 kts 99°
2026-04-22 17:58 9.06117 -79.18819 9770 ft 275 kts 99°
2026-04-22 17:58 9.05802 -79.16881 10492 ft 282 kts 98°
2026-04-22 17:58 9.05649 -79.14870 11143 ft 292 kts 92°
2026-04-22 17:59 9.05618 -79.12770 11862 ft 299 kts 91°
2026-04-22 17:59 9.05607 -79.10670 12594 ft 304 kts 91°
2026-04-22 17:59 9.05592 -79.08518 13406 ft 307 kts 91°
2026-04-22 17:59 9.05567 -79.06340 14153 ft 311 kts 91°
2026-04-22 18:00 9.05545 -79.04858 14626 ft 314 kts 92°
2026-04-22 18:00 9.05495 -79.01910 15545 ft 318 kts 92°
2026-04-22 18:00 9.05452 -78.99667 16307 ft 320 kts 91°
2026-04-22 18:00 9.05407 -78.97404 16994 ft 324 kts 91°
2026-04-22 18:01 9.05360 -78.95112 17645 ft 329 kts 91°
2026-04-22 18:01 9.05313 -78.92793 18390 ft 330 kts 91°
2026-04-22 18:01 9.05265 -78.90470 19028 ft 332 kts 91°
2026-04-22 18:01 9.05215 -78.88117 19592 ft 337 kts 91°
2026-04-22 18:02 9.05165 -78.85747 20293 ft 336 kts 91°
2026-04-22 18:02 9.05125 -78.83394 21019 ft 335 kts 89°
2026-04-22 18:02 9.05530 -78.81047 21476 ft 345 kts 73°
2026-04-22 18:02 9.06327 -78.78690 21611 ft 363 kts 71°
2026-04-22 18:03 9.07214 -78.76238 21821 ft 377 kts 71°
2026-04-22 18:03 9.08122 -78.73752 22186 ft 384 kts 70°
2026-04-22 18:03 9.09048 -78.71203 22683 ft 388 kts 71°
2026-04-22 18:03 9.09978 -78.68613 23105 ft 394 kts 71°
2026-04-22 18:04 9.10905 -78.66011 23694 ft 393 kts 72°
2026-04-22 18:04 9.11831 -78.63385 23988 ft 400 kts 72°
2026-04-22 18:04 9.12769 -78.60721 24447 ft 401 kts 71°
2026-04-22 18:04 9.13702 -78.58060 24891 ft 403 kts 72°
2026-04-22 18:05 9.14641 -78.55378 25372 ft 403 kts 72°
2026-04-22 18:05 9.15574 -78.52711 25910 ft 402 kts 72°
2026-04-22 18:05 9.16510 -78.50034 26359 ft 405 kts 72°
2026-04-22 18:05 9.17448 -78.47346 26833 ft 406 kts 72°
2026-04-22 18:06 9.18387 -78.44657 27341 ft 406 kts 71°
2026-04-22 18:06 9.19330 -78.41958 27833 ft 407 kts 71°
2026-04-22 18:06 9.20270 -78.39261 28352 ft 407 kts 74°
2026-04-22 18:06 9.21217 -78.36559 28828 ft 407 kts 71°
2026-04-22 18:07 9.21844 -78.34769 28986 ft 409 kts 72°
2026-04-22 18:07 9.23137 -78.31067 28980 ft 423 kts 72°
2026-04-22 18:07 9.24127 -78.28230 28978 ft 432 kts 73°
2026-04-22 18:08 9.26172 -78.22371 28974 ft 449 kts 72°
2026-04-22 18:08 9.28335 -78.16334 28976 ft 463 kts 70°
2026-04-22 18:09 9.30691 -78.10215 28965 ft 475 kts 69°
2026-04-22 18:09 9.33122 -78.03932 28963 ft 483 kts 70°
2026-04-22 18:10 9.35571 -77.97543 28965 ft 490 kts 70°
2026-04-22 18:10 9.38042 -77.91060 28957 ft 496 kts 70°
2026-04-22 18:11 9.40120 -77.85599 28956 ft 498 kts 70°
2026-04-22 18:11 9.42602 -77.79077 28955 ft 499 kts 70°
2026-04-22 18:12 9.45118 -77.72463 28953 ft 500 kts 70°
2026-04-22 18:12 9.47604 -77.65927 28947 ft 500 kts 70°
2026-04-22 18:13 9.50118 -77.59308 28951 ft 501 kts 70°
2026-04-22 18:13 9.52604 -77.52761 28951 ft 501 kts 70°
2026-04-22 18:14 9.55100 -77.46184 28944 ft 500 kts 70°
2026-04-22 18:14 9.57578 -77.39588 28944 ft 500 kts 71°
2026-04-22 18:15 9.59796 -77.32916 28948 ft 500 kts 73°
2026-04-22 18:15 9.61933 -77.26207 28948 ft 500 kts 74°
2026-04-22 18:16 9.64104 -77.19500 28946 ft 501 kts 72°
2026-04-22 18:16 9.66300 -77.12802 28944 ft 501 kts 72°
2026-04-22 18:17 9.68508 -77.06091 28945 ft 501 kts 73°
2026-04-22 18:17 9.70708 -76.99391 28947 ft 501 kts 72°
2026-04-22 18:18 9.72904 -76.92689 28942 ft 501 kts 73°
2026-04-22 18:18 9.75090 -76.86014 28922 ft 491 kts 72°
2026-04-22 18:18 9.76151 -76.82779 28918 ft 473 kts 72°
2026-04-22 18:19 9.77165 -76.79681 28921 ft 454 kts 72°
2026-04-22 18:19 9.78132 -76.76727 28919 ft 438 kts 72°
2026-04-22 18:19 9.79073 -76.73849 28915 ft 423 kts 72°
2026-04-22 18:19 9.79981 -76.71070 28918 ft 408 kts 72°
2026-04-22 18:20 9.80860 -76.68382 28914 ft 394 kts 72°
2026-04-22 18:20 9.81708 -76.65784 28918 ft 381 kts 72°
2026-04-22 18:20 9.82527 -76.63278 28915 ft 368 kts 73°
2026-04-22 18:20 9.83318 -76.60856 28911 ft 356 kts 72°
2026-04-22 18:21 9.84082 -76.58515 28918 ft 343 kts 73°
2026-04-22 18:21 9.84820 -76.56256 28927 ft 331 kts 73°
2026-04-22 18:21 9.85538 -76.54061 28591 ft 329 kts 73°
2026-04-22 18:21 9.86268 -76.51822 27743 ft 340 kts 72°
2026-04-22 18:22 9.87027 -76.49494 26699 ft 356 kts 72°
2026-04-22 18:22 9.87820 -76.47060 25547 ft 373 kts 72°
2026-04-22 18:22 9.88653 -76.44502 24342 ft 390 kts 72°
2026-04-22 18:22 9.89520 -76.41843 23101 ft 404 kts 72°
2026-04-22 18:23 9.90401 -76.39140 21773 ft 413 kts 72°
2026-04-22 18:23 9.91356 -76.36329 20490 ft 419 kts 69°
2026-04-22 18:23 9.92511 -76.33654 19303 ft 422 kts 65°
2026-04-22 18:24 9.95136 -76.28327 16897 ft 421 kts 63°
2026-04-22 18:24 9.96463 -76.25674 15701 ft 420 kts 63°
2026-04-22 18:24 9.99038 -76.20414 13526 ft 413 kts 64°
2026-04-22 18:25 10.00289 -76.17813 12401 ft 408 kts 64°
2026-04-22 18:25 10.01520 -76.15236 11376 ft 401 kts 64°
2026-04-22 18:25 10.02726 -76.12706 10390 ft 394 kts 64°
2026-04-22 18:26 10.05076 -76.07764 8305 ft 383 kts 65°
2026-04-22 18:26 10.06224 -76.05347 7291 ft 378 kts 64°
2026-04-22 18:26 10.07355 -76.02969 6732 ft 367 kts 65°
2026-04-22 18:26 10.08446 -76.00674 6540 ft 353 kts 64°
2026-04-22 18:27 10.09491 -75.98475 6337 ft 341 kts 65°
2026-04-22 18:27 10.10505 -75.96342 6086 ft 331 kts 65°
2026-04-22 18:27 10.11494 -75.94260 5833 ft 323 kts 65°
2026-04-22 18:27 10.12457 -75.92233 5585 ft 315 kts 65°
2026-04-22 18:28 10.13395 -75.90256 5342 ft 308 kts 65°
2026-04-22 18:28 10.14317 -75.88314 5096 ft 302 kts 65°
2026-04-22 18:28 10.15209 -75.86435 4855 ft 297 kts 65°
2026-04-22 18:28 10.16097 -75.84564 4618 ft 292 kts 65°
2026-04-22 18:29 10.16970 -75.82724 4368 ft 287 kts 65°
2026-04-22 18:29 10.17829 -75.80915 4123 ft 283 kts 64°
2026-04-22 18:29 10.18670 -75.79142 4023 ft 273 kts 64°
2026-04-22 18:29 10.19476 -75.77442 3991 ft 262 kts 65°
2026-04-22 18:30 10.20260 -75.75788 3989 ft 258 kts 65°
2026-04-22 18:30 10.21810 -75.72520 4001 ft 258 kts 65°
2026-04-22 18:30 10.22592 -75.70867 4003 ft 260 kts 65°
2026-04-22 18:31 10.23378 -75.69210 3996 ft 261 kts 65°
2026-04-22 18:31 10.24166 -75.67548 4001 ft 261 kts 65°
2026-04-22 18:31 10.24952 -75.65888 4000 ft 261 kts 65°
2026-04-22 18:31 10.25740 -75.64227 3991 ft 261 kts 65°
2026-04-22 18:32 10.26507 -75.62557 3991 ft 260 kts 72°
2026-04-22 18:32 10.26728 -75.60766 3862 ft 256 kts 94°
2026-04-22 18:32 10.26629 -75.58974 3681 ft 252 kts 94°
2026-04-22 18:32 10.26548 -75.57206 3496 ft 249 kts 94°
2026-04-22 18:33 10.26475 -75.55490 3426 ft 236 kts 94°
2026-04-22 18:33 10.26464 -75.53875 3303 ft 222 kts 82°
2026-04-22 18:33 10.27160 -75.52559 3192 ft 210 kts 41°
2026-04-22 18:33 10.28435 -75.51975 3114 ft 196 kts 12°
2026-04-22 18:34 10.29751 -75.51839 2996 ft 185 kts
2026-04-22 18:34 10.31078 -75.51791 2497 ft 196 kts
2026-04-22 18:34 10.32459 -75.51743 2103 ft 198 kts
2026-04-22 18:34 10.33743 -75.51708 1824 ft 178 kts
2026-04-22 18:35 10.34926 -75.51672 1578 ft 159 kts
2026-04-22 18:35 10.35988 -75.51630 1398 ft 157 kts
2026-04-22 18:35 10.37074 -75.51585 1149 ft 155 kts
2026-04-22 18:35 10.38119 -75.51542 980 ft 148 kts
2026-04-22 18:36 10.39127 -75.51501 827 ft 144 kts
2026-04-22 18:36 10.40146 -75.51458 576 ft 147 kts
2026-04-22 18:36 10.41152 -75.51421 403 ft 144 kts 359°
2026-04-22 18:36 10.42154 -75.51385 236 ft 144 kts
2026-04-22 18:37 10.43118 -75.51342 107 ft 137 kts 357°
2026-04-22 18:37 10.43973 -75.51300 50 ft 98 kts
2026-04-22 18:37 10.44332 -75.51286 50 ft 57 kts
2026-04-22 18:37 10.44551 -75.51324 50 ft 15 kts 289°
2026-04-22 18:38 10.44557 -75.51427 50 ft 15 kts 273°
2026-04-22 18:38 10.44637 -75.51478 50 ft 14 kts 344°
2026-04-22 18:38 10.44726 -75.51497 50 ft 2 kts 338°
2026-04-22 18:39 10.44726 -75.51527 50 ft 3 kts 272°
2026-04-22 18:39 10.44727 -75.51542 50 ft 0 kts 272°